Oceanside, CA

2:41 AM PDT on June 28, 2017 (GMT -0700)
Oceanside Municipal

Weather History for KOKB - November, 2013

Change the Weather History Date:

Friday, November 8, 2013

  Actual Average Record
Temperature  
Mean Temperature 58 °F 58 °F  
Max Temperature 77 °F 71 °F 83 °F (2014)
Min Temperature 39 °F 46 °F 37 °F (2000)
Degree Days  
Heating Degree Days 7 7  
Month to date heating degree days 45 50  
Since 1 July heating degree days 159 152  
Cooling Degree Days 0 0  
Month to date cooling degree days 0 0  
Year to date cooling degree days 530 416  
Growing Degree Days 8 (Base 50)    
Moisture  
Dew Point 47 °F    
Average Humidity 48    
Maximum Humidity 79    
Minimum Humidity 17    
Precipitation  
Precipitation 0.00 in 0.04 in 0.94 in (2002)
Month to date precipitation 0.00 0.39  
Year to date precipitation 2.76 10.87  
Since 1 July precipitation 0.44  
Snow  
Snow 0.00 in - - ()
Month to date snowfall 0.0  
Year to date snowfall 0.0  
Snow Depth 0.00 in    
Sea Level Pressure  
Sea Level Pressure 29.99 in    
Wind  
Wind Speed 2 mph (NE)    
Max Wind Speed 9 mph    
Max Gust Speed 15 mph    
Visibility 6 miles    
Events Fog    
T = Trace of Precipitation, MM = Missing Value Source: NWS Daily Summary

Daily Weather History Graph

Daily Weather History Graph

Search for Another Location

Airport or City:

Trip Planner

Search our weather history database for the weather conditions in past years. The results will help you decide how hot, cold, wet, or windy it might be!

Date:

Astronomy

Nov. 08, 2013 Rise Set
Actual Time 6:14 AM PST 4:51 PM PST
Civil Twilight 5:48 AM PST 5:17 PM PST
Nautical Twilight 5:18 AM PST 5:47 PM PST
Astronomical Twilight 4:49 AM PST 6:16 PM PST
Moon 11:13 AM PST (11/8) 10:16 PM PST (11/8)
Length of Visible Light 11h 29m
Length of Day
10h 37m
Waxing Crescent, 34% of the Moon is Illuminated
Nov 8
Waxing Crescent
Nov 9
First Quarter
Nov 17
Full
Nov 25
Last Quarter
Dec 2
New

Hourly Weather History & Observations

Time (PST) Temp. Dew Point Humidity Pressure Visibility Wind Dir Wind Speed Gust Speed Precip Events Conditions
12:52 AM 46.0 °F 35.1 °F 66% 30.01 in 10.0 mi Calm Calm - N/A   Clear
1:52 AM 45.0 °F 36.0 °F 71% 30.00 in 10.0 mi Calm Calm - N/A   Clear
2:52 AM 43.0 °F 35.1 °F 74% 30.00 in 10.0 mi Calm Calm - N/A   Clear
3:52 AM 41.0 °F 35.1 °F 79% 30.00 in 10.0 mi Calm Calm - N/A   Clear
4:52 AM 43.0 °F 34.0 °F 71% 30.01 in 10.0 mi Calm Calm - N/A   Clear
5:52 AM 41.0 °F 33.1 °F 73% 30.01 in 10.0 mi Calm Calm - N/A   Clear
6:52 AM 39.9 °F 33.1 °F 77% 30.03 in 10.0 mi Calm Calm - N/A   Clear
7:52 AM 53.1 °F 32.0 °F 45% 30.03 in 10.0 mi Calm Calm - N/A   Clear
8:52 AM 62.1 °F 30.9 °F 31% 30.04 in 10.0 mi ENE 3.5 mph - N/A   Clear
9:52 AM 73.0 °F 26.1 °F 17% 30.03 in 10.0 mi Calm Calm - N/A   Clear
10:52 AM 77.0 °F 30.0 °F 18% 30.01 in 10.0 mi SW 6.9 mph - N/A   Clear
11:52 AM 75.9 °F 39.0 °F 26% 29.98 in 9.0 mi SW 5.8 mph - N/A   Clear
12:52 PM 73.0 °F 53.1 °F 49% 29.96 in 8.0 mi SW 5.8 mph - N/A   Clear
1:52 PM 72.0 °F 48.9 °F 44% 29.95 in 10.0 mi West 4.6 mph - N/A   Clear
2:52 PM 71.1 °F 51.1 °F 49% 29.94 in 10.0 mi WSW 5.8 mph - N/A   Clear
3:52 PM 68.0 °F 54.0 °F 61% 29.93 in 10.0 mi West 4.6 mph - N/A   Clear
4:52 PM 63.0 °F 57.0 °F 81% 29.93 in 8.0 mi Calm Calm - N/A   Clear
5:52 PM 57.9 °F 55.0 °F 90% 29.94 in 7.0 mi Calm Calm - N/A   Clear
6:50 PM 55.4 °F 51.8 °F 88% 29.97 in 5.0 mi Calm Calm - N/A   Scattered Clouds
6:52 PM 55.9 °F 53.1 °F 90% 29.97 in 4.0 mi Calm Calm - N/A   Scattered Clouds
7:00 PM 53.6 °F 53.6 °F 100% 29.97 in 4.0 mi Calm Calm - N/A   Mostly Cloudy
7:25 PM 53.6 °F 51.8 °F 94% 29.97 in 4.0 mi Calm Calm - N/A   Scattered Clouds
7:38 PM 53.6 °F 51.8 °F 94% 29.97 in 2.5 mi Calm Calm - N/A   Partly Cloudy
7:45 PM 53.6 °F 51.8 °F 94% 29.98 in 3.0 mi Calm Calm - N/A   Mostly Cloudy
7:49 PM 55.4 °F 53.6 °F 94% 29.98 in 1.5 mi Calm Calm - N/A   Mostly Cloudy
7:52 PM 54.0 °F 53.1 °F 97% 29.98 in 0.8 mi Calm Calm - N/A   Mist
8:00 PM 53.6 °F 53.6 °F 100% 29.98 in 0.2 mi Calm Calm - N/A Fog Fog
8:11 PM 53.6 °F 51.8 °F 94% 29.98 in 2.0 mi Calm Calm - N/A   Overcast
8:21 PM 53.6 °F 53.6 °F 100% 29.98 in 3.0 mi Calm Calm - N/A   Overcast
8:52 PM 55.9 °F 54.0 °F 93% 29.99 in 4.0 mi NE 3.5 mph - N/A   Overcast
9:13 PM 55.4 °F 53.6 °F 94% 29.99 in 1.2 mi NE 3.5 mph - N/A   Overcast
9:18 PM 55.4 °F 55.4 °F 100% 29.99 in 0.5 mi NE 3.5 mph - N/A Fog Fog
9:40 PM 55.4 °F 55.4 °F 100% 30.00 in 1.8 mi Calm Calm - N/A   Overcast
9:48 PM 55.4 °F 55.4 °F 100% 30.00 in 2.0 mi NE 3.5 mph - N/A   Overcast
9:52 PM 55.9 °F 55.0 °F 97% 30.00 in 2.0 mi NE 3.5 mph - N/A   Overcast
10:10 PM 55.4 °F 55.4 °F 100% 30.00 in 0.8 mi East 4.6 mph - N/A   Overcast
10:52 PM 52.0 °F 52.0 °F 100% 30.00 in 0.2 mi ENE 3.5 mph - N/A Fog Fog
10:58 PM 51.8 °F 50.0 °F 94% 30.00 in 2.5 mi Calm Calm - N/A   Mostly Cloudy
11:01 PM 51.8 °F 48.2 °F 88% 30.00 in 5.0 mi NE 3.5 mph - N/A   Scattered Clouds
11:52 PM 48.9 °F 44.1 °F 83% 30.01 in 9.0 mi Calm Calm - N/A   Clear